Tracking 29892 objects as of 21-Nov-2024
HD Live streaming from Space Station
objects crossing your sky now

FALCON 9 R/B

Track FALCON 9 R/B now!


NORAD ID: 42819
Int'l Code: 2017-041B
Perigee: 301.8 km
Apogee: 39,807.0 km
Inclination: 26.4 °
Period: 712.5 minutes
Semi major axis: 26425 km
RCS: Unknown
Launch date: July 5, 2017
Source: United States (US)
Launch site: AIR FORCE EASTERN TEST RANGE (AFETR)

Note: This is a ROCKET BODY
Your satellite tracking list
Your tracking list is empty




NASA's NSSDC Master Catalog

Two Line Element Set (TLE):
1 42819U 17041B   24323.77005745  .00001310  00000-0  10245-2 0  9995
2 42819  26.4008   7.1326 7474866 121.6995 331.1230  2.02102261 51634
Source of the keplerian elements: AFSPC